Location: Czekan�w
(50.3488°N, 18.7344°E)
Time: 12:08:45
(UTC+00:00)

Daily predictions for brighter satellites

Satellite Brightness Start Highest point End
(mag) Time Altitude Azimuth Time Altitude Azimuth Time Altitude Azimuth
Cosmos 2154 Rocket 4.1 15:11:19 10° N 15:17:43 87° E 15:24:05 10° S
Cosmos 1606 3.2 15:16:00 10° SSE 15:19:39 40° E 15:23:19 10° NNE
Landsat 5 4.2 15:18:15 10° NNE 15:22:28 39° E 15:26:42 10° SSE
SMAP 3.4 15:24:14 10° SE 15:28:39 44° ENE 15:33:05 10° N
Sich 1 3.0 15:25:24 10° N 15:29:48 74° ENE 15:34:08 10° SSE
Cosmos 482 Debris 3.5 15:29:17 10° W 15:31:02 43° SSW 15:32:48 10° SE
YAOGAN 1 4.5 15:33:04 10° ENE 15:34:10 11° NE 15:35:17 10° NE
Cosmos 1470 Rocket 4.4 15:30:35 10° N 15:34:21 28° ENE 15:38:04 10° SE
SL-8 Rocket 4.1 15:29:47 10° N 15:35:55 54° ENE 15:42:03 10° SSE
Cosmos 1151 Rocket 3.8 15:32:35 10° SSE 15:36:20 30° E 15:40:04 10° NNE
CZ-4C R/B 3.3 15:32:54 10° NNE 15:36:29 52° E 15:40:00 10° S
Cosmos 2341 Rocket 4.0 15:30:59 10° N 15:37:17 70° ENE 15:43:36 10° SSE
Radarsat Rocket 4.2 15:33:17 10° SSE 15:39:30 80° ENE 15:46:36 10° NNW
CZ-2C R/B 4.3 15:39:08 10° E 15:42:14 17° ENE 15:45:16 10° NNE
CZ-4B DEB 4.3 15:36:58 10° SSE 15:42:27 82° WSW 15:47:57 10° NNW
USA 281 4.0 15:38:40 10° E 15:44:07 29° NE 15:49:34 10° NNW
Cosmos 2360 Rocket 4.3 15:41:23 10° WNW 15:44:51 16° NNW 15:48:19 10° N
Cosmos 2333 Rocket 3.9 15:40:39 10° W 15:45:24 27° NW 15:50:10 10° NNE
Cosmos 2285 Rocket 4.0 15:41:09 10° NNW 15:47:36 81° ENE 15:53:57 10° SSE
Cosmos 2219 Rocket 3.8 15:42:56 10° W 15:47:42 27° NW 15:52:28 10° NNE
COSMO-SKYMED 1 4.1 15:45:53 12° ENE 15:48:02 16° E 15:50:45 10° SE
USA 81 4.2 15:44:29 10° N 15:49:41 53° E 15:54:50 10° SSE
TELKOM 3 3.1 15:47:43 10° W 15:50:36 82° S 15:52:24 17° E
COSMOS 2428 4.3 15:47:37 10° WSW 15:52:33 29° NW 15:57:32 10° NNE
CORIOLIS 4.2 15:47:38 10° SSE 15:53:00 65° ENE 15:58:24 10° N
USA 267 3.5 15:46:49 10° E 15:53:08 53° N 15:59:28 10° WNW
X-37B 2.7 15:52:40 10° SSW 15:54:56 18° SSE 15:57:12 10° ESE
PAYLOAD B 4.4 15:49:52 10° SSE 15:55:27 78° WSW 16:01:02 10° NNW
H-2A R/B 3.4 15:54:40 11° E 15:57:36 17° NE 16:00:52 10° NNE
Helios 1A Rocket 4.3 15:57:11 15° E 15:58:20 17° ENE 16:00:59 10° NNE
Meteor 1-4 Rocket 3.3 15:57:37 10° SSE 16:00:49 32° E 16:03:14 15° NE
Meteor 1-20 Rocket 4.3 15:55:51 10° NNW 16:01:46 85° ENE 16:07:35 10° SSE
Cosmos 44 Rocket 3.9 15:56:57 10° NNW 16:01:47 39° NE 16:06:21 11° ESE
Cosmos 1328 Rocket 3.7 15:59:46 10° S 16:03:56 50° E 16:08:11 10° NNE
Cosmos 2181 Rocket 4.0 15:57:52 10° S 16:04:11 65° E 16:10:26 10° NNE
Cosmos 1939 Rocket 3.4 16:00:51 10° SE 16:04:21 33° ENE 16:07:56 10° N
Cosmos 1933 Rocket 4.1 16:00:19 10° N 16:04:31 38° ENE 16:08:40 10° SE
Cosmos 1666 Rocket 3.8 16:01:13 10° NNW 16:05:39 76° W 16:10:04 10° S
CZ-4 R/B 2.6 16:05:25 18° E 16:06:39 20° ENE 16:09:40 10° NNE
Cosmos 389 Rocket 3.2 16:03:40 10° SSW 16:07:00 51° WNW 16:10:21 10° N
Cosmos 2237 Rocket 3.2 16:02:08 10° SW 16:07:31 44° NW 16:12:57 10° NNE
NOAA 11 4.1 16:03:22 10° SSE 16:08:44 67° ENE 16:14:09 10° N
Cosmos 1602 3.7 16:05:17 10° N 16:09:10 58° ENE 16:13:00 10° SSE
CZ-4B R/B 3.2 16:04:35 10° SSE 16:09:55 82° WSW 16:15:14 10° NNW
Meteor 1-26 Rocket 4.4 16:06:17 10° S 16:12:11 59° E 16:18:03 10° NNE
H-2A R/B 3.6 16:08:47 10° S 16:12:51 48° W 16:16:49 10° NNW
Cosmos 2369 Rocket 2.1 16:09:31 10° NNW 16:15:15 72° ENE 16:20:54 10° SE
Cosmos 1943 4.1 16:11:06 10° SSE 16:15:47 27° ESE 16:18:07 21° ENE
ADEOS Rocket 4.0 16:08:09 10° NNE 16:15:50 68° WNW 16:23:28 10° SSW
Cosmos 1943 Rocket 2.4 16:11:14 10° NNW 16:16:48 75° WSW 16:22:22 10° SSE
Meteor 1-14 Rocket 4.3 16:11:08 10° N 16:17:04 63° ENE 16:23:01 10° SSE
Cosmos 1538 Rocket 4.3 16:14:12 10° S 16:19:20 48° ESE 16:23:21 16° NE
NOAA 12 4.4 16:14:17 10° S 16:19:35 73° WSW 16:24:56 10° NNW
H-2A R/B 2.1 16:16:11 10° NNE 16:20:24 78° WNW 16:24:42 10° SSW
CENTAUR R/B 4.0 16:17:11 10° SE 16:20:31 15° ESE 16:20:31 15° ESE
CZ-2D R/B 3.8 16:18:16 10° SE 16:21:47 35° ENE 16:25:19 10° N
SL-08 R/B 4.4 16:19:45 10° N 16:25:52 63° ENE 16:31:55 10° SSE
Okean O Rocket 2.1 16:22:05 10° S 16:26:24 63° WSW 16:30:47 10° NNW
ARGOS 4.2 16:27:01 23° ENE 16:27:08 23° ENE 16:31:17 10° N
Cosmos 1782 2.7 16:23:51 10° S 16:27:46 63° E 16:31:08 14° NNE
Okean-O 3.2 16:23:59 10° SE 16:27:59 34° ENE 16:31:59 10° N
Cosmos 2056 Rocket 4.4 16:23:34 10° N 16:28:03 27° NE 16:29:05 25° ENE
Cosmos 1633 Rocket 3.9 16:25:34 10° NNW 16:29:50 52° W 16:34:04 10° S
DEBRIS 4.5 16:13:44 10° W 16:31:02 83° S 16:34:04 23° ESE
ISS -3.8 16:28:41 10° W 16:32:03 72° N 16:32:58 44° ENE
Cosmos 1933 4.0 16:29:31 10° SSW 16:33:31 56° WNW 16:37:34 10° N
Cosmos 2218 Rocket 4.2 16:30:07 10° NNW 16:36:16 71° W 16:42:23 10° S
SKYMED 2 3.9 16:34:31 26° NE 16:36:31 44° E 16:40:40 10° S
Cosmos 2366 rocket 4.2 16:31:04 10° NNW 16:37:14 73° W 16:43:20 10° S
ERS-2 2.1 16:36:10 33° NE 16:37:32 55° ESE 16:41:08 10° S
Cosmos 1869 Rocket 4.1 16:35:03 10° N 16:39:14 36° ENE 16:40:22 31° ESE
Cosmos 1867 4.4 16:35:50 10° WSW 16:41:04 46° NW 16:44:54 18° NNE
Cosmos 489 Rocket 4.4 16:38:16 10° SSW 16:44:27 79° ESE 16:49:47 15° NNE
Cosmos 371 Rocket 3.7 16:44:27 10° NNW 16:49:03 39° ENE 16:49:18 38° ENE
Lacrosse 5 rocket 1.5 16:46:00 10° WSW 16:49:33 51° NNW 16:50:15 43° NNE
Cosmos 773 Rocket 4.4 16:45:01 10° SW 16:50:16 65° WNW 16:54:45 14° NNE
SL-23 DEB 4.5 16:47:05 10° SW 16:50:51 57° SSE 16:52:39 37° E
NOSS 3-2 (A) 3.9 16:47:39 10° S 16:52:50 37° ESE 16:54:01 34° E
Feng Yun 1-1 Rocket 4.5 16:51:11 10° S 16:56:55 74° WSW 17:02:31 10° NNW
CZ-4B R/B 1.5 16:56:26 48° NNW 16:57:04 64° WNW 17:00:11 10° SSW
Cosmos 2239 Rocket 4.4 16:52:10 10° N 16:58:18 65° ENE 17:04:28 10° SSE
SL-16 R/B 3.1 16:55:13 10° SW 17:00:38 46° NW 17:05:04 15° NNE
USA 215 3.8 16:59:21 33° E 17:01:14 40° SE 17:07:18 10° SSW
EO 1 Delta rocket 4.5 16:58:11 10° NNE 17:03:53 82° E 17:11:11 10° S
BREEZE-M DEB (TANK) 3.9 17:02:27 10° WSW 17:03:26 23° SW 17:03:26 23° SW
Cosmos 1500 3.3 17:01:41 10° NNW 17:05:30 76° W 17:09:19 10° S
YAOGAN 1 2.4 17:09:18 68° E 17:09:28 69° ENE 17:13:48 10° N
Cosmos 1656 Rocket 3.7 17:05:04 10° NNW 17:10:45 80° WSW 17:16:18 10° SSE
SL-24 DEB 4.3 17:06:12 10° N 17:10:58 79° W 17:15:39 10° SSW
USA 238 DEB 3.9 17:05:46 10° SSW 17:12:00 47° ESE 17:13:06 43° E
USA 238 3.9 17:05:53 10° SSW 17:12:06 46° ESE 17:13:10 43° E
MOS 1 Rocket 3.6 17:13:25 52° ENE 17:14:06 56° E 17:19:23 10° S
NOAA 15 4.5 17:13:18 10° SSE 17:18:36 86° ENE 17:23:54 10° NNW
STPSAT 2 (USA 217) 4.4 17:15:00 10° SSW 17:19:32 86° ESE 17:19:42 82° ENE
Cosmos 158 Rocket 3.8 17:16:21 10° S 17:20:55 64° SE 17:20:55 64° SE
Cosmos 1934 Rocket 3.9 17:14:53 10° N 17:21:15 68° ENE 17:27:32 10° SSE
CZ-2C R/B 2.9 17:16:36 10° SSE 17:21:35 82° WSW 17:26:23 10° NNW
SWAS 4.5 17:19:57 10° SW 17:24:10 77° WNW 17:24:10 77° WNW
Cosmos 1238 Rocket 3.1 17:20:36 10° NNW 17:24:30 75° W 17:29:16 10° S
Cosmos 923 Rocket 3.8 17:19:26 10° SSW 17:24:37 73° ESE 17:24:50 72° E
COSMO-SKYMED 1 2.9 17:23:06 38° N 17:24:38 65° WNW 17:28:56 10° SSW
USA 281 3.2 17:21:27 10° SSE 17:28:02 84° WSW 17:34:40 10° NNW
CSL-04 Debris 4.0 17:27:30 49° SE 17:29:01 76° ENE 17:34:32 10° NNW
X-37B 3.1 17:28:10 10° WSW 17:29:28 20° SW 17:29:28 20° SW
Nadezhda 3 Rocket 4.0 17:24:39 10° S 17:31:02 84° W 17:37:27 10° N
Helios 1A Rocket 3.4 17:33:25 57° WNW 17:33:25 57° WNW 17:37:05 10° NNW
Meteor 2-6 Rocket 4.3 17:28:36 10° SSW 17:34:09 74° WNW 17:37:14 27° N
Cosmos 2228 Rocket 3.3 17:29:42 10° SSW 17:34:13 70° WNW 17:34:29 68° NW
USA 267 3.1 17:34:11 54° ESE 17:35:53 86° NNE 17:42:28 10° WNW
H-2A R/B 1.9 17:35:18 57° SSE 17:36:24 90° WSW 17:41:33 10° NNW
Cosmos 1821 Rocket 4.5 17:30:57 10° NNW 17:37:05 61° W 17:43:16 10° S
Cosmos 1812 4.1 17:34:16 10° SSW 17:36:35 33° SW 17:36:35 33° SW
Meteor 1-11 Rocket 3.8 17:34:35 10° NNW 17:40:23 80° W 17:46:16 10° S
CZ-4 R/B 2.3 17:41:27 48° W 17:41:27 48° W 17:45:20 10° NNW
Cosmos 44 Rocket 4.2 17:38:30 10° NW 17:43:30 51° WSW 17:45:09 37° S
CSL-04 Rocket 3.5 17:44:05 83° NNW 17:44:05 83° NNW 17:49:11 10° NNW
Cosmos 1980 Rocket 4.4 17:44:21 10° N 17:45:17 12° N 17:45:17 12° N
Cosmos 1680 Rocket 3.9 17:46:13 10° SSW 17:50:18 55° SSW 17:50:18 55° SSW
Cosmos 1603 4.2 17:50:34 10° SW 17:56:06 57° NW 17:56:56 51° NNW
Cosmos 1943 3.6 17:53:51 10° SW 17:59:27 60° NW 17:59:58 58° NNW
Okean-O 4.3 18:00:30 10° SSW 18:04:28 31° W 18:08:27 10° NNW
ARGOS 3.9 18:08:32 46° NW 18:08:32 46° NW 18:12:21 10° NNW
ISS -0.4 18:05:32 10° WNW 18:05:55 13° W 18:05:55 13° W
CENTAUR R/B 3.1 18:03:43 10° SSW 18:07:44 46° SSW 18:07:44 46° SSW
Cosmos 2056 Rocket 4.3 18:05:21 10° NNW 18:09:29 49° WNW 18:09:29 49° WNW
NOSS 3-2 (C) 4.4 18:12:04 10° SW 18:15:09 35° SSW 18:15:09 35° SSW
NOSS 3-2 (A) 4.5 18:37:36 10° WSW 18:41:27 41° W 18:41:27 41° W
USA 215 3.9 18:46:43 48° WSW 18:46:43 48° WSW 18:51:13 10° WSW
